User: anonymous   Login
Location: Kunchanapalle
(16.4623°N, 80.6176°E)
Time: 12:06:09
(UTC+00:00)
Language:

USA 81 - Orbit

View from above orbital plane
View from above orbital plane
View from above satellite
View from above satellite

Ground track
Ground track

The orbit data is extracted from the following two-line orbital elements,

1 21949U 92023A   20261.97926807 0.00000000  00000-0  00000-0 0    03
2 21949  85.0118 203.6111 0001331 174.9582 185.0417 14.31458659    00
Epoch (UTC): 17 September 2020 23:30:08
Eccentricity: 0.0001331
inclination: 85.0118°
perigee height: 786 km
apogee height: 788 km
right ascension of ascending node: 203.6111°
argument of perigee: 174.9582°
revolutions per day: 14.31458659
mean anomaly at epoch: 185.0417°
orbit number at epoch: 0

The dashed part of the orbit path shows where the satellite is in the earth's shadow,  

DLR